Theta_e
313 313 311 310 309 307 306 305 304 305 306 305 305 305 305 306 305 306 306 307 307 307 308 308 308 308 309 309 309 310 310 314 318 320 321 317 313 313 313 313 313 314 315 315 314 314 314 314 314 314 315 317 319 320 319 319 327 336 338 336 324 316 316 316 317 320 321 318 316 316 317 318 316 316 315 315 316 314 313 314 313 312 312 312 313 314 315 316
311 310 308 308 307 307 307 305 305 306 306 306 305 306 306 306 306 306 306 307 307 307 308 307 308 308 309 309 310 310 312 317 318 316 316 314 313 313 313 313 314 314 314 314 314 314 314 314 314 313 316 319 318 318 319 319 323 324 329 332 321 316 316 315 317 317 317 317 317 317 317 317 316 315 315 315 316 315 315 314 312 313 313 313 313 314 315 315
309 307 305 306 306 307 307 305 306 306 306 306 306 306 306 306 306 306 307 307 307 308 307 308 308 309 309 310 311 311 313 319 320 315 314 313 314 313 313 314 313 314 314 314 314 314 314 315 314 313 317 319 317 319 321 321 321 322 330 327 316 316 315 314 318 317 317 317 317 317 316 316 315 315 315 315 317 317 317 314 314 315 314 313 313 312 314 314
308 308 306 305 306 306 306 306 306 306 307 307 306 307 307 307 306 307 308 308 307 308 308 308 308 309 310 310 311 312 314 321 320 315 313 313 314 314 313 314 313 314 315 315 315 315 315 315 314 314 318 319 319 322 321 319 320 321 327 322 314 317 316 315 318 318 318 317 317 317 316 317 315 316 316 316 318 318 315 314 314 315 313 314 313 311 312 313
308 308 306 305 306 306 306 306 306 306 306 307 307 307 307 307 307 307 308 309 308 308 308 308 309 310 310 311 312 311 317 321 318 314 314 314 314 314 314 313 313 314 315 315 315 315 315 314 314 317 319 318 321 322 318 317 319 319 318 317 317 318 317 316 317 318 318 317 317 317 316 316 315 316 316 316 318 319 316 314 314 314 313 313 312 311 311 311
309 308 307 307 306 306 307 306 306 307 307 307 307 307 307 307 307 307 307 308 308 309 309 309 309 310 310 312 311 313 320 320 316 315 313 314 313 313 314 313 314 314 315 316 315 315 316 315 315 318 318 317 320 321 317 317 320 321 317 317 319 318 317 317 317 319 317 317 317 317 316 316 316 316 317 319 318 316 314 312 313 313 312 312 311 311 311 311
310 309 309 308 306 306 307 307 306 307 307 307 306 307 307 308 308 308 307 307 308 309 310 310 310 310 311 312 314 320 325 320 315 315 314 313 313 313 313 313 314 315 316 315 315 316 317 318 316 316 319 319 318 318 317 317 320 322 319 318 319 317 317 318 319 318 317 318 316 316 315 316 317 315 318 320 315 313 312 310 310 310 310 310 311 310 309 310
310 310 310 308 306 306 306 306 306 306 307 307 306 307 307 308 308 309 308 308 308 308 310 311 311 311 311 312 318 324 325 320 316 316 314 314 313 313 314 314 315 316 316 316 316 316 316 318 316 316 319 318 317 317 317 319 320 320 318 318 319 317 317 320 321 319 318 318 316 316 315 317 318 315 318 318 312 312 312 309 309 309 310 310 310 310 308 309
311 310 309 308 306 306 306 306 306 306 307 307 306 306 307 307 308 308 308 308 309 309 311 311 312 313 312 314 318 318 319 319 316 315 314 314 314 314 315 315 316 316 316 316 316 315 316 317 316 316 317 317 317 317 317 320 319 317 317 317 318 317 317 319 320 319 318 317 317 316 316 318 317 315 316 313 311 313 311 311 311 310 312 311 311 309 308 308
310 310 310 309 307 306 307 307 306 306 306 306 306 306 306 306 306 307 308 309 310 310 311 312 313 313 314 318 319 315 317 318 314 314 314 314 315 314 316 316 316 316 316 316 315 315 316 316 315 315 317 317 317 316 317 320 318 316 317 317 318 318 317 317 318 319 318 317 317 316 317 318 315 315 315 312 311 312 312 313 312 312 313 312 311 308 307 308
310 309 310 310 308 307 306 307 307 306 306 306 306 306 307 306 306 307 308 309 310 311 312 313 313 313 314 317 319 317 317 317 315 315 315 316 315 315 316 316 316 317 317 317 315 315 315 314 314 315 317 317 315 317 317 316 316 316 316 317 319 319 317 317 317 318 317 315 317 317 317 316 313 315 316 313 311 312 312 313 312 313 313 312 312 309 307 307
311 310 310 310 310 309 307 308 308 307 307 307 307 308 307 307 308 308 308 309 311 312 313 313 313 314 314 316 318 318 317 318 317 316 316 316 316 315 316 315 316 317 316 317 316 315 314 314 315 316 317 316 316 317 315 315 315 316 316 317 321 321 319 318 317 318 318 316 317 316 316 317 315 315 315 312 311 312 312 313 313 313 312 312 311 309 307 306
311 310 310 311 311 311 310 310 310 309 308 308 307 308 307 307 308 308 309 310 312 312 313 314 314 314 315 317 316 316 318 319 318 317 317 316 316 316 316 316 316 316 316 316 316 314 313 314 316 316 316 317 317 315 314 314 314 317 316 316 321 323 325 320 315 317 318 316 317 315 317 325 321 314 312 311 311 313 313 313 313 313 312 311 311 310 308 305
311 310 310 310 311 311 311 312 311 310 309 308 309 309 307 307 308 309 311 312 312 313 314 314 315 316 316 316 315 316 319 319 317 318 317 316 316 316 315 315 315 315 315 315 315 313 313 315 315 315 315 316 316 314 316 316 315 318 317 320 322 321 328 325 315 318 317 315 317 315 318 326 323 313 311 312 312 313 314 313 312 312 311 311 311 310 308 306
312 311 311 310 309 310 311 312 311 310 308 308 309 309 308 308 309 311 312 313 314 314 315 314 314 317 319 318 316 315 316 316 317 316 316 316 315 315 314 314 314 314 314 314 314 313 314 314 315 317 315 315 316 315 321 322 320 318 318 329 328 320 331 327 314 317 317 314 314 315 320 324 320 313 310 311 312 313 314 313 312 312 311 311 310 309 308 305
313 313 312 311 309 308 310 311 310 310 307 306 308 309 310 311 312 313 313 314 315 315 316 317 315 315 318 319 317 316 315 315 316 315 316 317 316 315 314 314 314 313 314 313 314 314 314 316 317 318 316 316 318 320 328 330 329 326 320 328 330 321 326 324 315 318 318 316 314 315 321 323 320 315 312 312 313 314 314 314 312 312 312 311 309 308 307 305
312 312 312 312 310 309 310 311 310 310 307 305 308 311 312 313 314 314 315 315 315 316 318 318 316 313 314 314 316 320 318 315 316 316 316 317 316 315 314 314 314 313 314 313 314 315 315 316 315 316 317 318 319 325 330 328 330 333 321 320 327 325 322 321 320 319 317 317 315 314 316 319 320 316 313 313 313 314 314 313 312 311 311 310 309 307 306 306
313 312 312 311 310 310 310 309 310 310 308 307 310 314 315 314 315 315 315 315 315 314 314 317 315 312 313 312 314 319 318 316 317 316 316 316 315 314 314 314 313 313 315 316 316 315 316 318 320 321 320 318 318 324 329 329 330 331 324 323 327 327 323 321 322 320 317 317 317 317 316 316 317 316 313 312 312 313 314 313 312 311 311 310 309 308 306 306
314 313 312 311 310 310 309 309 310 310 310 312 315 316 314 314 317 318 317 316 318 314 311 317 316 312 314 314 315 318 318 317 318 316 315 315 314 314 315 314 314 315 317 319 317 316 319 323 326 325 323 320 318 320 326 330 330 327 330 333 328 325 325 323 321 319 317 317 318 317 317 317 316 317 316 312 313 313 313 314 312 311 311 311 311 308 306 306
313 312 312 311 311 310 309 309 311 310 312 315 317 317 316 318 319 318 320 320 321 317 313 318 316 313 315 317 317 317 317 317 316 316 315 314 315 315 315 314 316 317 319 323 321 317 320 324 326 326 325 323 320 318 320 322 323 321 325 328 326 324 324 324 321 318 317 318 321 320 317 319 319 319 317 313 313 314 313 315 313 312 311 311 311 309 307 306
312 312 312 311 311 310 310 311 311 311 313 315 317 319 321 322 316 315 324 325 320 316 316 317 314 313 315 316 316 316 317 317 315 315 314 314 314 315 316 316 318 320 321 325 323 318 319 322 326 327 324 320 320 320 317 318 319 319 320 321 324 326 324 325 321 317 317 318 323 326 320 320 321 319 318 315 313 313 314 314 313 311 311 310 311 310 307 306
312 312 312 312 311 310 311 312 312 312 313 315 316 319 321 319 315 315 320 325 322 318 318 317 314 315 316 315 315 315 317 319 317 316 314 313 314 316 318 317 320 324 321 322 324 321 321 323 324 322 320 319 320 320 319 320 319 320 323 322 325 329 327 327 323 316 318 319 326 330 322 321 322 320 319 317 314 314 314 314 313 311 311 310 310 309 306 305
312 312 312 312 311 311 313 312 312 312 313 315 316 318 319 317 316 315 316 322 325 321 320 319 316 315 316 315 315 315 318 321 322 319 314 313 315 317 318 318 320 323 320 320 324 324 325 328 324 319 318 320 320 320 320 322 321 323 324 321 326 329 325 326 325 317 317 319 322 326 322 320 320 318 320 316 314 317 316 315 314 311 311 310 309 308 306 305
313 312 312 312 311 312 314 313 313 313 313 314 315 318 319 317 316 317 319 321 320 319 319 319 316 314 315 316 315 316 318 319 322 320 315 314 316 317 318 318 319 320 319 320 322 323 325 327 325 321 319 320 320 320 321 321 323 327 326 323 327 328 324 325 326 321 322 326 323 321 324 328 325 321 322 315 312 315 313 314 315 312 312 311 309 307 306 305
314 313 311 311 311 313 314 314 314 313 314 314 314 316 319 319 317 317 320 318 317 320 319 317 318 315 314 316 315 317 317 316 319 318 314 314 316 318 317 317 318 319 319 319 320 321 321 320 322 323 321 320 320 320 326 326 324 327 329 326 324 326 326 325 327 327 329 334 328 322 328 338 336 329 324 316 312 314 312 312 314 312 311 310 309 308 306 305
315 313 311 311 312 314 314 315 314 314 315 315 314 314 318 318 318 316 316 317 318 320 318 316 319 318 316 316 315 316 316 316 317 316 315 314 315 317 318 317 318 319 319 319 320 321 321 320 320 322 322 324 322 321 326 327 323 326 328 328 327 326 324 324 327 328 332 334 327 323 330 334 332 328 326 321 316 315 312 312 312 310 310 309 308 308 306 304
316 314 311 311 313 314 315 316 315 314 317 316 312 313 316 317 317 315 315 319 319 318 320 318 316 317 318 316 313 314 315 316 316 314 314 315 315 316 318 319 318 318 319 320 322 323 322 321 322 323 323 326 324 323 326 324 327 330 327 330 333 328 325 326 327 328 332 332 325 324 328 327 325 326 324 322 319 316 312 312 311 309 308 308 307 307 305 304
316 314 311 311 313 314 316 316 315 315 316 316 314 312 315 316 316 316 316 318 318 318 322 319 315 315 317 314 313 315 315 317 319 316 312 313 315 315 318 320 318 319 321 321 323 323 322 323 325 324 323 326 325 327 330 325 326 329 325 329 332 330 330 329 328 328 328 327 325 325 324 325 329 329 321 317 319 320 315 312 310 308 307 307 306 306 305 304
316 315 312 311 313 314 316 317 316 315 314 317 317 313 315 316 315 319 319 315 317 321 319 318 316 315 317 315 314 317 316 317 319 316 313 313 314 315 317 319 319 319 320 320 321 324 324 322 323 325 325 326 325 325 330 328 324 325 324 328 331 330 330 327 326 328 326 326 327 326 324 326 330 331 322 316 320 322 318 313 309 307 307 306 305 305 304 303
316 315 313 312 313 314 315 316 316 316 316 318 318 315 316 317 315 318 318 314 318 323 316 315 319 318 317 317 316 318 319 317 316 314 314 315 315 316 316 317 319 322 324 325 324 322 320 316 318 323 323 324 324 320 322 326 324 324 327 330 331 330 331 330 327 326 326 327 327 326 325 325 328 332 327 320 322 322 319 317 310 307 307 305 305 304 303 303
317 315 313 312 313 314 315 316 316 318 318 317 318 316 317 320 319 318 318 313 314 320 315 315 320 318 317 318 319 319 320 317 315 315 317 317 317 318 318 318 321 324 325 327 327 322 318 318 320 321 318 321 325 320 321 324 323 325 331 331 330 330 331 330 325 324 327 329 327 324 323 322 326 334 329 321 322 320 320 320 313 307 306 305 304 303 302 302
317 315 313 312 313 314 315 316 317 318 318 317 318 318 317 321 321 319 316 312 312 319 319 318 320 319 318 320 320 319 319 318 316 317 319 318 318 318 318 320 321 322 324 324 325 324 322 323 323 319 317 322 327 324 323 324 323 325 329 328 327 327 329 329 326 324 327 326 322 319 321 322 323 327 324 321 322 319 318 318 313 308 306 304 303 302 302 301
318 315 313 313 313 314 314 316 317 318 318 318 317 319 320 319 318 318 315 312 316 322 321 321 321 320 319 322 321 318 319 320 317 317 318 318 319 318 318 321 320 324 331 326 322 325 327 326 323 319 319 322 324 324 323 325 324 323 325 328 329 327 329 332 329 326 327 327 321 316 319 324 325 325 322 319 319 317 315 314 312 307 305 304 303 302 301 301
319 316 314 313 313 314 314 315 317 318 318 317 318 322 323 318 315 316 315 313 318 322 321 322 321 320 320 322 322 319 319 320 316 317 320 318 320 320 320 321 318 323 333 327 321 324 328 329 325 321 322 322 321 321 325 326 323 321 323 326 328 330 334 335 331 329 330 329 321 316 320 327 329 325 317 314 314 313 313 312 310 307 305 304 302 301 301 300
319 316 314 314 314 314 314 315 317 318 317 318 320 322 322 318 315 316 315 314 321 323 321 321 321 321 322 323 322 319 322 323 317 317 321 320 320 321 320 319 316 321 328 325 324 323 324 329 326 319 320 321 320 321 324 325 322 321 323 324 326 330 332 330 327 325 324 325 321 318 324 329 326 319 312 312 314 312 310 310 308 307 305 303 302 301 301 300
318 316 315 315 314 314 314 315 317 318 317 319 322 322 320 318 317 318 316 316 322 324 322 321 323 323 323 323 322 319 322 325 319 319 321 319 319 320 319 319 317 318 321 322 327 326 326 328 322 317 318 318 319 322 321 323 324 321 322 324 324 325 326 326 326 320 318 324 324 320 324 326 322 318 312 311 313 310 308 308 306 305 304 302 302 301 300 300
317 316 315 315 315 314 313 314 317 317 317 320 322 321 320 319 318 319 318 316 320 323 323 323 323 324 323 323 324 321 321 323 320 320 322 320 321 321 319 321 318 317 319 321 326 329 331 329 319 317 320 316 314 319 320 321 323 323 324 323 321 322 325 326 328 324 322 326 325 321 324 325 324 322 314 310 313 312 309 308 306 305 304 303 302 301 301 300
316 316 316 315 315 315 314 314 316 316 318 321 321 320 320 319 319 320 321 319 321 323 323 322 320 323 324 324 324 322 321 323 320 320 323 320 322 322 319 321 320 317 317 320 324 328 329 328 320 316 318 316 314 318 322 319 318 323 325 321 322 327 327 325 326 327 327 327 327 325 324 322 322 323 319 315 316 314 310 308 307 305 303 303 302 302 301 300
317 316 317 316 315 315 315 315 316 317 319 321 320 319 320 320 319 322 324 321 321 322 322 320 319 323 324 323 324 322 321 323 320 319 323 321 322 322 319 320 321 318 317 318 322 326 327 327 324 316 315 317 316 318 324 321 316 320 321 316 320 325 326 326 324 326 329 327 327 328 325 325 325 322 324 323 316 312 310 308 307 305 303 303 302 301 301 300
317 318 319 317 316 316 315 315 316 318 320 319 318 318 319 319 319 322 324 323 323 322 320 320 320 322 325 323 323 323 321 322 319 319 322 321 321 322 319 319 322 320 318 317 321 324 324 324 325 318 314 317 319 320 323 321 317 320 321 319 319 319 321 324 323 324 328 327 327 326 324 331 328 318 319 322 314 309 309 308 307 305 304 303 302 301 301 300
317 320 320 317 316 316 316 316 317 319 319 318 317 317 317 320 320 321 322 323 325 323 321 324 323 321 324 324 322 322 321 321 320 319 321 320 321 324 321 319 322 321 319 319 321 323 323 325 327 321 316 319 323 320 317 318 319 319 318 319 319 319 320 323 322 323 324 325 329 328 324 329 326 315 315 319 315 309 308 308 307 305 304 303 303 302 301 300
317 321 320 317 317 316 316 318 318 319 318 316 316 317 317 319 321 321 322 323 323 323 321 323 325 323 324 324 322 323 322 322 320 320 321 320 321 324 323 321 321 320 320 321 321 322 324 327 327 324 318 317 319 316 314 319 320 317 318 320 320 319 320 323 325 324 322 322 325 325 324 325 319 314 314 315 314 311 308 308 308 306 304 304 303 302 301 300
319 320 319 317 317 317 317 320 320 318 316 314 315 317 317 318 320 320 322 322 322 323 322 322 324 324 325 324 323 322 322 322 321 320 321 320 320 321 320 322 323 320 320 323 321 322 325 325 325 324 319 316 316 314 315 317 317 316 320 321 320 318 319 322 326 325 324 323 322 321 324 321 314 314 316 314 313 312 308 308 308 306 305 304 304 302 301 301
318 318 318 317 317 317 319 321 320 317 315 314 314 316 316 317 318 320 322 321 321 323 323 322 322 324 326 326 326 324 322 323 323 321 322 323 320 316 316 321 322 319 321 325 323 321 323 325 326 326 324 321 320 318 317 316 315 318 320 319 317 318 318 320 322 322 321 323 323 323 324 323 318 315 315 313 312 311 309 308 307 307 306 305 304 302 301 300
317 317 317 316 316 317 320 322 320 316 314 314 314 314 316 317 317 319 321 321 322 322 322 323 324 324 325 325 326 326 323 324 325 323 324 326 321 314 315 319 321 322 324 324 323 321 324 326 325 325 326 326 325 324 321 319 316 316 318 317 316 317 318 318 319 321 321 322 323 322 323 325 320 314 312 313 311 310 309 308 307 307 306 305 304 302 301 300
317 317 316 316 315 316 318 319 319 317 314 313 313 314 315 316 317 318 319 321 322 321 322 324 324 323 324 324 325 326 325 324 325 323 324 327 323 315 313 315 318 322 320 319 321 324 327 326 323 323 325 324 324 324 322 320 318 317 318 318 317 317 317 318 319 321 322 322 322 320 321 323 320 315 315 314 312 311 310 309 308 307 306 305 304 302 302 301
316 317 317 317 317 317 316 317 318 318 315 314 314 314 314 315 317 318 318 320 321 321 321 321 322 322 324 324 324 325 325 324 323 323 324 325 320 313 310 313 315 317 315 315 319 324 326 324 322 323 324 322 323 324 320 319 319 318 318 317 317 317 317 318 319 320 322 323 322 321 321 321 320 318 316 314 313 313 311 309 309 307 306 305 305 304 303 301
314 316 317 318 319 320 318 317 317 317 317 315 315 315 315 315 316 318 318 319 320 321 321 321 321 321 322 322 323 323 324 323 322 322 323 321 318 314 312 313 313 313 315 315 317 322 324 322 321 322 322 321 322 322 319 318 319 318 318 317 316 316 317 318 318 318 321 322 320 321 323 322 320 318 315 312 311 312 310 308 307 306 305 305 305 304 303 301
313 315 317 316 319 321 319 317 316 317 317 316 316 316 315 315 315 317 318 318 319 320 320 321 320 320 321 321 322 322 322 322 322 322 321 319 318 317 317 316 313 312 315 316 317 320 322 322 321 321 321 321 321 318 317 318 318 318 318 318 316 315 316 317 317 317 319 319 319 321 323 322 320 318 313 310 308 308 308 306 307 306 306 305 305 304 303 301
312 314 315 315 316 318 319 317 316 317 317 316 316 316 315 315 315 316 317 318 319 319 319 320 320 320 320 320 320 321 321 322 322 321 319 319 318 317 318 320 316 312 312 314 315 315 318 320 320 319 320 320 318 317 316 317 318 318 318 317 316 314 314 315 316 316 317 318 318 318 319 321 320 315 312 311 309 307 307 307 306 306 305 305 304 303 303 302
306 306 310 315 316 316 317 317 317 318 317 315 316 316 316 316 315 315 316 317 317 318 318 319 320 319 319 318 318 319 319 319 321 320 318 319 320 319 319 319 317 314 312 313 314 315 315 317 317 317 320 320 318 317 315 315 316 316 316 316 314 314 315 315 314 315 316 317 318 317 317 320 318 312 310 310 309 307 307 306 306 305 305 305 305 304 303 302
303 303 306 312 316 315 315 316 317 317 317 315 314 315 316 316 316 316 316 316 316 317 317 318 319 319 318 318 318 319 319 319 319 319 318 318 320 320 319 318 318 317 315 312 314 315 314 315 316 317 320 319 316 316 315 314 316 318 318 317 315 314 316 315 314 315 315 316 318 317 317 318 318 314 312 311 310 309 308 306 306 307 305 304 305 306 304 302
Wind_Speed
3 3 4 4 4 4 5 5 4 4 4 4 4 3 3 3 3 3 3 3 2 3 3 3 3 4 4 5 6 7 8 6 4 3 3 3 6 7 7 6 7 6 6 7 9 11 11 9 7 9 7 3 2 2 3 2 2 5 4 4 3 1 1 1 1 1 4 4 3 0 4 6 2 1 1 2 7 6 6 6 5 7 8 9 12 13 12 12
3 4 5 5 4 4 5 5 4 4 4 4 4 4 3 3 2 2 2 3 3 3 3 3 3 4 4 5 6 7 8 4 5 5 6 7 8 9 8 8 8 8 8 8 10 11 8 6 10 10 6 1 2 2 3 2 3 4 3 4 1 2 1 1 4 2 3 6 4 2 4 6 4 2 1 1 4 4 7 4 4 7 7 9 12 14 14 15
3 4 5 5 5 4 4 4 4 4 4 4 4 4 4 3 3 2 3 3 4 4 3 3 3 4 5 6 6 7 7 4 4 3 6 9 9 9 8 8 8 9 8 8 8 9 7 8 11 7 3 1 2 2 4 4 3 2 4 5 1 3 2 3 5 5 3 5 6 3 2 4 2 2 2 2 3 4 5 2 3 5 4 5 8 13 15 17
3 3 4 4 4 5 4 4 4 3 4 4 3 4 3 3 3 3 3 4 4 4 3 3 4 4 5 6 6 6 5 4 1 4 9 10 9 8 7 6 7 8 6 7 7 7 8 11 10 4 3 2 3 4 4 3 2 2 3 4 4 3 3 2 4 5 3 4 6 3 3 4 0 1 2 5 5 2 3 3 3 6 6 5 5 10 14 16
2 3 4 4 4 5 4 4 4 3 3 3 3 3 3 3 3 4 4 4 3 3 3 3 4 4 5 6 6 6 5 4 2 8 10 9 8 7 5 4 6 7 5 5 7 8 9 9 6 4 3 2 4 4 3 3 3 3 2 4 3 4 3 2 3 4 3 4 4 3 3 1 1 1 2 6 4 3 4 3 5 7 6 6 7 8 11 14
3 2 3 3 4 4 4 4 4 3 2 2 2 3 3 3 4 4 4 3 3 3 3 4 4 4 5 6 6 5 3 1 4 10 10 8 8 5 3 3 5 6 6 6 8 8 7 6 6 4 2 3 3 3 2 4 4 4 1 2 3 4 4 3 2 2 3 5 3 2 2 1 2 3 1 5 4 4 5 6 7 7 8 10 10 9 8 10
3 2 2 2 3 4 3 3 3 4 3 2 3 3 2 3 3 4 4 3 4 3 3 3 4 4 4 5 5 4 4 2 6 11 10 8 7 4 3 2 4 5 6 7 9 7 5 6 5 2 3 4 2 2 1 4 5 5 0 3 2 3 3 3 4 3 4 5 3 2 1 1 2 2 1 5 3 5 7 7 9 9 12 13 10 8 8 10
4 3 2 3 3 3 3 3 3 3 3 3 3 3 3 3 3 3 4 4 4 3 3 3 4 4 4 3 2 4 1 3 7 12 11 8 6 3 2 1 3 4 6 6 7 4 3 6 4 3 4 1 2 1 1 5 6 4 1 2 1 0 2 5 5 5 4 3 3 2 1 4 5 3 2 5 5 6 7 7 9 10 11 10 8 7 8 10
5 4 3 4 4 3 3 2 2 2 2 2 2 3 3 3 3 3 3 3 3 3 3 3 4 4 4 3 3 2 3 4 9 12 10 8 5 4 2 2 3 2 4 3 4 4 2 3 2 3 3 1 2 2 2 4 2 1 2 2 1 3 3 4 5 6 5 4 3 1 3 6 5 4 1 4 8 6 7 7 7 9 8 7 6 6 8 9
5 5 3 3 4 3 3 2 3 3 3 3 3 3 3 3 3 3 3 3 2 2 3 3 4 2 3 3 5 1 3 5 10 11 9 7 6 5 4 3 3 1 2 2 5 6 3 1 1 2 4 1 2 2 3 4 2 2 0 3 3 5 5 3 5 7 5 3 5 5 5 6 3 3 2 3 7 7 8 7 6 8 6 6 6 6 10 11
6 5 4 4 4 4 4 4 3 4 4 4 4 4 3 3 3 3 3 2 2 2 2 3 3 2 2 3 5 3 3 5 9 9 8 8 8 7 5 4 3 2 1 3 5 6 4 3 3 2 2 1 1 2 2 1 1 1 1 5 6 6 6 4 6 6 4 2 6 7 3 4 3 2 5 7 8 7 8 7 6 7 6 6 6 6 9 10
6 5 5 4 4 4 5 5 5 5 5 5 5 4 3 3 3 3 3 2 1 1 2 2 2 2 2 3 2 4 4 6 8 9 9 9 9 7 4 4 4 3 2 4 4 4 4 4 6 4 0 1 2 3 1 2 1 1 2 2 7 6 5 7 6 5 5 2 6 7 2 4 2 4 5 9 9 7 8 7 7 7 6 6 6 5 7 9
8 7 6 5 4 5 5 5 5 6 7 6 6 5 3 3 2 2 2 1 1 1 2 1 1 2 2 0 3 6 7 8 9 9 9 8 7 6 5 4 4 3 3 5 4 3 2 2 6 5 1 3 1 0 1 0 1 1 1 1 3 6 5 6 3 6 6 3 5 6 1 6 6 5 5 8 9 8 8 7 7 6 5 6 5 5 5 8
10 9 8 7 7 7 5 5 5 6 7 7 6 5 4 3 2 2 2 2 2 2 1 1 1 2 2 2 3 5 9 9 9 9 9 8 7 7 6 4 4 3 2 4 3 3 2 1 5 4 1 3 2 0 2 3 1 0 1 1 1 2 5 7 0 7 6 1 4 7 2 6 6 5 7 8 8 9 8 7 7 6 6 5 5 5 4 6
10 10 9 9 9 8 6 6 7 8 9 8 6 4 2 2 2 2 3 2 2 2 2 2 2 2 2 3 3 5 8 7 8 10 9 9 7 7 6 5 4 3 2 3 3 3 3 2 4 3 1 1 3 3 3 4 2 1 1 3 3 1 4 7 1 7 6 1 3 6 2 6 6 6 7 7 7 8 8 7 7 7 7 6 5 6 5 5
11 10 9 9 10 8 7 7 9 9 10 8 5 2 2 2 3 4 4 3 4 4 3 1 2 4 2 2 1 3 6 6 8 10 10 9 6 6 8 8 6 5 4 4 5 4 3 4 3 2 1 2 4 5 3 4 4 2 2 3 3 2 3 4 2 3 5 3 1 3 3 4 4 6 7 7 8 8 7 8 8 8 8 7 6 5 6 5
13 12 11 9 10 9 8 8 7 7 7 5 1 2 4 3 4 5 4 5 5 4 3 2 2 2 0 1 1 3 5 7 10 12 12 9 7 9 10 7 5 6 6 5 4 3 3 3 1 0 2 2 2 5 5 3 4 4 1 3 4 2 2 1 4 4 4 5 3 4 4 5 6 5 7 8 8 8 7 8 8 8 7 6 6 6 6 5
13 12 11 11 10 10 10 9 6 4 3 0 3 5 6 5 5 5 6 6 5 4 1 0 2 1 3 3 3 3 5 10 12 14 13 10 10 11 8 5 5 7 6 4 3 2 3 3 2 1 3 2 1 5 3 3 3 2 2 2 3 2 2 3 3 3 4 4 4 4 5 9 9 5 6 7 7 8 8 7 7 7 7 6 6 6 5 5
13 12 12 12 11 10 11 9 5 2 1 5 7 8 7 5 4 3 4 5 4 3 1 3 4 3 3 4 4 4 7 11 11 11 12 11 11 9 6 6 7 6 4 2 2 0 2 3 4 2 1 2 4 6 7 8 6 5 5 4 3 3 3 4 4 4 6 4 5 7 7 8 9 6 7 7 7 8 7 6 6 6 7 7 6 6 6 6
14 13 12 11 10 10 10 7 4 2 5 7 7 7 5 4 2 1 1 2 4 4 2 5 8 4 1 2 5 9 10 9 5 6 12 12 11 9 4 4 5 4 2 4 1 1 3 3 1 4 6 6 7 8 9 8 6 4 3 3 4 4 4 4 3 3 3 3 6 8 7 7 8 7 8 8 7 8 8 6 7 7 7 7 7 7 7 6
14 13 12 11 9 9 8 6 4 5 7 7 5 3 2 3 3 2 3 4 9 12 8 5 10 5 1 6 12 14 8 3 1 4 13 13 10 9 2 2 5 1 2 5 2 1 4 4 6 9 9 8 7 9 9 8 7 4 3 3 3 2 5 5 2 2 0 1 5 5 5 8 8 7 7 8 8 9 10 9 9 9 8 6 7 8 7 6
14 13 12 11 9 9 9 7 6 8 8 6 3 2 2 1 3 2 3 2 9 15 14 9 8 6 2 8 16 13 4 2 1 3 11 10 7 6 2 3 5 3 3 4 3 0 2 4 9 11 8 6 6 5 5 6 6 3 1 3 2 3 4 5 3 1 0 1 4 5 5 8 8 10 8 8 10 8 7 9 9 9 9 7 8 8 7 7
15 14 12 12 10 11 9 7 8 7 8 7 5 4 1 2 3 3 3 1 5 8 9 9 8 8 4 5 12 11 3 4 4 5 11 10 4 5 5 5 5 4 3 5 5 4 3 6 10 11 7 6 6 4 6 3 2 3 3 3 3 3 2 3 4 2 2 1 3 5 5 6 7 11 9 4 5 3 2 5 6 7 9 9 8 8 8 9
15 14 13 13 13 13 10 9 8 6 9 9 9 9 5 3 2 2 2 0 4 5 6 12 10 8 8 6 11 12 3 4 6 6 14 12 5 3 5 6 6 4 4 8 9 7 7 7 6 7 8 8 6 5 6 4 2 3 4 5 4 4 5 6 3 2 2 4 3 3 6 6 5 9 8 3 1 3 3 4 5 3 5 7 7 8 8 9
17 15 14 16 16 14 12 9 7 9 8 7 12 13 9 4 1 1 1 1 4 4 3 9 6 6 11 9 13 11 1 4 4 8 17 15 8 4 3 4 4 5 8 8 8 7 9 7 3 5 6 7 7 6 6 7 4 4 4 7 7 7 7 6 3 4 4 5 4 2 3 6 4 6 6 0 2 4 2 4 6 4 4 7 7 7 7 7
19 16 15 19 18 16 13 7 9 11 8 8 13 14 10 6 2 2 2 3 4 3 1 5 4 8 13 10 10 7 2 5 2 10 20 17 10 4 3 3 2 5 8 6 4 4 5 7 6 6 6 7 8 6 5 7 5 3 4 6 7 7 6 4 0 2 1 4 3 3 1 7 5 5 7 4 6 8 5 5 6 5 5 6 6 6 7 7
21 18 18 21 21 19 12 4 10 12 6 8 11 15 13 9 5 4 2 4 5 3 5 2 2 7 10 10 12 8 2 5 3 6 11 11 7 2 2 5 2 4 4 3 3 3 3 7 8 8 7 7 7 5 6 7 7 4 5 4 5 5 5 4 4 2 3 3 4 2 3 5 7 6 6 5 7 8 7 8 8 7 7 6 6 6 7 8
23 21 20 23 24 22 13 6 12 14 7 4 7 17 17 11 7 2 4 1 4 3 4 1 1 4 5 9 13 8 2 3 6 1 0 3 4 1 2 7 5 6 4 5 5 5 2 7 7 9 7 6 6 4 5 8 6 5 5 5 6 6 5 4 5 1 1 2 4 2 4 3 8 5 1 3 5 8 11 13 10 8 8 8 7 7 7 7
25 23 22 25 24 22 16 9 11 14 11 4 7 17 17 11 6 3 4 2 2 2 2 2 3 3 5 7 8 4 2 2 3 3 1 3 1 3 3 5 4 6 4 4 6 3 1 5 6 7 6 6 4 1 1 5 5 4 3 5 6 5 4 5 4 3 2 2 5 5 5 3 6 3 2 2 4 9 10 9 9 8 9 9 8 8 7 7
26 25 24 26 23 23 20 15 14 13 10 6 8 16 15 8 4 4 1 3 1 0 1 2 3 4 10 10 3 2 3 2 1 1 2 1 2 4 1 1 4 4 1 3 1 2 1 1 1 3 4 5 5 3 3 1 6 6 6 6 7 5 5 4 2 4 2 4 6 9 10 7 4 4 4 4 5 6 4 3 6 8 9 9 8 9 8 7
29 27 27 28 28 28 20 14 18 17 12 10 11 16 11 3 3 4 5 2 1 1 2 1 2 6 13 14 6 4 4 2 2 5 4 2 1 3 2 1 3 2 2 4 3 3 3 1 1 1 2 5 6 4 4 4 4 7 5 5 4 4 4 5 4 4 1 6 5 9 11 9 7 6 3 5 6 5 5 6 9 11 10 9 9 9 9 8
32 29 29 32 32 31 22 16 21 20 14 14 13 11 6 2 1 6 5 1 0 3 5 3 4 7 11 11 8 8 6 2 4 6 6 4 4 5 5 6 5 2 2 4 3 3 2 3 3 0 0 4 6 4 3 6 4 5 5 6 3 2 3 3 2 0 3 6 4 4 5 6 8 7 7 10 8 5 6 7 10 13 12 10 10 9 9 8
35 33 32 35 35 34 29 22 23 21 17 18 12 4 2 4 7 9 8 4 2 2 4 4 5 9 11 8 6 6 4 2 5 6 4 4 5 6 5 4 6 4 3 5 4 2 2 4 2 3 2 3 8 7 3 2 1 5 6 6 4 3 0 3 3 2 4 5 3 1 4 3 5 4 9 11 7 5 6 5 9 12 13 12 11 10 9 9
38 37 35 36 37 36 32 24 21 22 21 17 10 3 4 7 9 11 12 8 2 2 2 5 6 8 9 6 5 7 4 2 7 6 3 5 5 6 4 6 8 3 3 3 3 5 4 5 4 7 3 5 10 8 6 6 4 5 5 6 5 5 4 4 4 3 4 4 3 1 3 4 3 2 6 6 4 5 4 3 7 8 9 10 9 9 9 9
39 40 37 36 37 36 33 26 21 23 20 11 7 7 8 9 8 10 11 6 3 1 3 6 8 7 6 3 3 7 4 2 6 5 4 6 5 6 6 7 11 6 4 4 2 3 5 6 4 3 1 7 10 4 5 8 2 2 3 4 3 5 5 3 3 5 3 2 2 2 3 4 4 3 4 3 4 6 4 5 8 7 8 9 8 9 9 8
37 38 35 34 36 38 38 31 24 25 17 6 7 10 10 11 8 6 6 5 5 5 7 6 4 5 6 3 3 6 2 3 6 4 3 5 3 6 6 5 10 11 8 6 3 3 4 4 3 3 3 3 5 2 3 4 3 2 3 4 4 4 5 2 3 0 2 2 4 3 4 5 2 3 3 3 3 4 4 4 7 8 9 10 9 8 8 8
32 30 28 31 37 41 43 37 29 27 16 5 9 10 8 10 6 3 3 4 6 8 8 5 4 5 7 4 4 7 3 2 5 5 3 3 3 7 8 4 8 15 12 6 2 3 5 1 3 1 0 3 1 2 3 2 4 6 3 5 2 2 2 2 1 3 2 3 4 3 6 4 2 4 3 4 2 4 3 5 6 7 9 10 9 9 9 9
27 20 18 30 40 41 43 42 33 23 9 4 10 10 7 9 5 2 3 3 6 8 7 6 6 6 7 6 5 7 7 4 6 6 4 4 4 7 11 6 7 15 15 6 2 2 4 2 3 0 2 3 2 3 2 4 2 6 4 4 4 2 1 2 2 2 1 4 5 3 5 5 5 5 2 3 8 9 7 7 7 9 11 10 9 9 9 9
21 9 9 27 42 39 42 44 31 15 6 7 11 10 8 9 6 2 1 1 3 6 7 8 6 4 6 8 6 7 8 6 8 7 4 5 5 5 11 8 6 14 15 10 6 3 2 3 3 1 1 1 2 2 4 2 0 2 1 1 2 2 4 3 3 3 3 3 4 3 2 4 6 6 8 11 13 12 11 10 10 12 12 10 9 10 10 10
13 4 4 22 41 43 44 39 20 8 8 10 10 8 6 6 7 6 4 1 1 3 6 7 7 6 6 7 7 8 7 5 8 7 5 6 5 4 8 9 7 10 15 14 9 2 2 2 3 1 2 1 2 4 8 10 6 3 2 3 2 1 2 1 2 3 4 3 3 3 5 5 4 4 8 11 11 12 14 13 12 11 11 11 10 10 10 10
5 5 2 18 40 46 38 22 8 6 8 9 11 11 7 4 6 9 7 2 1 2 2 4 6 7 6 7 7 7 6 6 7 7 5 6 5 3 6 10 10 10 10 11 8 4 3 3 3 2 1 3 5 5 5 7 7 5 5 7 7 5 4 2 4 3 3 3 4 3 6 7 4 3 5 6 6 9 13 13 11 10 12 12 10 11 11 10
2 6 4 22 45 45 26 9 6 6 7 7 7 7 6 3 3 7 8 5 3 3 1 1 4 6 6 7 8 7 7 6 8 8 6 8 9 6 4 4 9 12 10 8 8 5 3 3 3 3 3 5 5 4 1 2 3 3 2 4 5 6 6 5 6 4 2 3 2 2 5 7 3 3 3 4 5 8 10 10 9 10 11 11 10 10 10 9
3 4 5 28 51 41 15 7 9 8 7 5 3 3 4 4 3 5 8 9 5 2 2 2 2 3 3 4 7 9 9 7 9 11 7 8 8 4 3 3 6 12 9 4 5 2 3 3 3 1 1 2 3 4 4 4 5 1 3 4 6 6 6 6 5 3 3 3 3 1 6 5 2 3 3 4 5 5 8 9 10 9 8 9 10 11 10 9
4 3 1 23 49 38 11 7 10 9 10 8 6 9 5 3 6 7 8 11 8 3 3 4 2 3 3 2 3 8 10 7 9 10 7 6 5 1 3 4 4 10 7 2 4 5 3 3 3 2 1 3 3 3 3 3 1 3 3 3 6 8 7 3 1 2 3 5 8 4 8 5 2 4 3 4 3 4 8 8 9 9 8 9 9 9 10 9
2 2 2 11 28 24 9 8 10 10 10 10 11 14 10 5 8 10 8 8 8 6 4 3 2 1 2 2 2 3 7 4 4 5 3 3 2 2 4 5 2 5 4 1 3 7 5 4 5 6 7 8 5 3 3 2 3 3 2 5 9 11 11 7 2 5 6 4 9 8 9 5 3 4 3 3 1 4 6 7 7 8 9 9 9 9 10 10
2 4 2 3 8 8 4 4 9 10 11 11 8 11 14 12 7 7 8 7 7 8 5 2 2 1 1 3 3 4 4 1 3 3 4 4 2 2 2 3 4 1 1 2 2 4 3 3 7 10 11 11 8 4 5 6 6 5 7 11 13 13 13 9 5 8 5 3 6 10 8 7 6 3 5 6 4 4 5 7 7 7 7 8 9 10 10 10
4 4 5 4 2 6 5 2 5 10 12 14 9 7 15 16 6 3 8 8 6 8 5 1 3 6 7 8 6 5 4 2 2 3 4 3 1 2 1 3 4 2 2 2 2 4 4 4 8 10 12 13 6 3 5 7 8 11 12 14 14 13 14 13 12 11 6 4 10 9 7 10 10 7 9 8 6 6 7 8 8 7 8 8 8 8 9 9
5 4 5 5 3 5 8 6 7 9 12 14 9 7 14 18 12 8 9 8 6 7 5 2 7 14 15 12 8 5 5 4 4 5 4 3 3 1 2 2 2 3 3 2 2 3 5 6 6 8 12 13 3 3 5 6 5 6 10 13 14 15 16 17 19 15 9 8 15 8 8 13 11 8 11 10 11 11 8 7 6 7 8 8 9 9 10 10
3 1 2 3 3 5 8 8 6 7 12 14 10 9 13 17 19 13 7 5 6 10 11 11 15 18 17 12 9 7 7 7 9 9 6 4 4 4 2 1 0 2 3 2 1 2 3 3 3 6 11 12 5 4 4 5 3 3 7 11 13 16 18 18 20 17 12 15 16 5 6 11 7 6 10 9 8 7 5 5 6 8 9 10 11 11 11 11
2 2 2 1 1 2 3 4 5 4 8 11 11 11 12 17 21 16 8 10 13 13 13 18 22 18 16 14 11 11 14 15 16 12 8 7 5 4 4 4 2 1 2 2 1 1 1 2 3 5 6 10 6 5 4 5 5 6 10 13 10 9 11 13 15 14 12 16 16 7 8 9 4 3 4 5 5 6 7 6 6 8 9 10 11 11 10 11
2 1 2 3 3 4 4 4 6 6 6 7 9 10 11 17 21 17 11 12 15 14 16 24 26 15 10 12 14 19 22 19 15 9 10 10 8 6 5 4 6 5 3 3 2 1 3 2 2 4 5 8 6 7 5 4 2 8 18 16 9 7 8 12 14 13 14 16 15 12 12 9 3 1 4 6 7 9 9 8 7 6 8 10 11 11 11 12
2 2 0 2 5 7 6 4 6 7 6 7 10 11 11 14 15 14 9 7 12 14 14 21 19 7 6 14 20 22 18 11 6 5 8 6 4 5 5 5 8 9 7 5 3 3 5 4 2 4 5 6 3 7 6 3 0 10 16 13 14 14 13 13 12 13 15 14 12 12 12 8 6 5 6 6 8 9 9 8 8 7 8 10 11 12 12 12
Wind_Direction
137 152 167 170 179 172 168 173 173 170 163 172 178 183 191 186 188 182 193 199 211 231 245 271 284 302 311 326 334 339 351 16 29 60 114 116 111 102 84 74 59 42 21 12 15 9 3 7 347 349 358 340 17 356 358 14 44 51 71 80 75 83 53 210 112 171 149 142 185 6 77 113 141 336 333 356 36 68 73 59 60 59 69 85 98 92 75 78
155 167 174 173 171 150 159 169 165 168 166 175 176 178 185 179 190 193 209 218 229 240 250 267 286 298 308 324 331 344 356 47 70 72 114 124 113 104 92 76 55 38 24 26 24 10 3 348 333 350 20 37 340 1 18 350 50 67 93 82 107 172 39 149 127 84 105 140 153 100 88 103 151 179 83 23 3 61 94 70 81 76 67 75 84 85 78 77
164 171 176 170 161 145 153 162 160 170 166 169 173 178 182 183 189 194 215 227 232 235 250 263 282 296 304 319 331 348 356 65 80 71 125 125 118 111 94 73 51 33 25 31 17 355 345 316 314 337 41 45 316 28 36 360 39 77 96 76 258 189 68 30 97 90 95 135 127 111 97 83 167 172 100 121 42 59 121 148 124 108 106 96 76 81 80 75
166 162 173 170 161 156 154 159 167 174 168 173 174 175 184 188 192 198 213 223 230 235 248 260 277 291 298 313 329 341 2 56 92 176 145 133 128 117 96 74 47 28 19 24 2 336 326 316 317 349 57 15 331 39 37 343 30 40 89 128 222 154 83 9 89 96 74 94 122 143 86 62 237 135 111 129 84 32 181 199 153 140 141 127 92 82 81 77
176 158 165 169 166 165 161 166 175 173 170 177 177 179 182 189 199 203 211 223 228 233 246 260 273 283 298 308 323 335 18 54 218 175 155 150 141 126 103 73 41 20 9 8 347 336 325 321 349 28 58 28 352 33 358 310 73 61 63 146 169 94 111 223 116 100 83 70 81 86 83 104 229 56 147 143 146 217 195 165 133 132 137 125 110 93 83 81
182 165 159 170 166 165 165 170 177 171 165 167 181 186 184 195 204 206 214 224 225 233 247 257 271 279 296 303 315 341 63 99 211 172 166 164 153 143 116 62 27 15 7 4 353 356 345 347 24 26 44 55 46 83 282 309 73 99 333 46 51 82 131 196 138 116 104 88 82 113 159 161 44 324 210 130 164 185 149 140 131 120 119 111 103 96 84 84
194 179 168 184 175 171 173 175 179 175 172 186 193 186 193 202 205 216 219 225 229 234 246 259 277 279 296 306 319 11 100 202 206 175 177 173 166 161 126 25 24 30 18 18 14 17 14 21 38 55 59 56 71 109 271 332 57 95 29 345 11 82 126 161 159 156 119 128 192 135 89 139 114 271 60 92 133 138 128 131 125 111 105 102 96 92 85 85
211 201 198 206 199 192 191 186 184 184 184 198 204 195 206 211 210 226 224 229 234 238 254 265 279 285 306 316 359 28 25 220 189 179 185 181 176 169 153 8 54 49 29 26 15 8 20 36 41 60 63 64 103 91 2 24 36 73 115 290 311 326 189 165 154 161 152 183 216 77 354 235 195 199 108 137 158 136 136 135 121 106 95 94 96 96 89 82
216 213 214 223 215 205 213 216 200 198 205 217 228 225 229 228 228 238 234 238 245 252 264 274 280 290 320 344 76 47 290 198 171 177 182 179 174 170 181 109 98 49 21 19 16 25 50 64 33 61 96 202 87 85 49 64 34 205 179 277 301 287 256 172 163 181 186 207 187 131 269 263 232 202 176 165 167 150 138 134 122 107 97 95 97 99 94 83
219 217 219 235 229 218 225 240 231 222 229 234 240 246 253 257 253 253 245 249 256 260 274 280 281 296 334 12 77 100 253 165 164 175 174 173 166 166 179 154 129 82 21 27 46 54 79 102 329 118 127 17 38 89 70 97 185 230 145 322 290 269 274 191 190 203 188 205 174 166 240 274 280 203 225 192 171 156 137 138 125 110 112 110 99 95 91 84
230 225 223 233 236 235 230 236 244 236 235 235 239 241 251 266 267 262 253 249 252 259 274 280 291 307 348 61 102 186 212 160 165 168 169 171 166 169 176 178 173 144 73 62 69 66 67 29 10 66 100 45 45 60 47 115 171 177 64 334 298 284 290 231 213 216 169 195 182 159 228 293 357 257 213 179 168 159 144 144 128 117 125 117 106 98 91 89
235 234 234 236 245 249 237 235 240 241 241 236 236 239 244 255 261 256 245 242 249 253 269 281 312 317 11 75 157 212 202 176 169 161 167 170 167 173 169 174 173 146 89 90 92 66 57 21 41 66 94 127 87 54 33 238 146 108 87 326 301 333 314 245 219 198 155 179 180 141 349 304 247 239 192 157 161 157 145 144 134 131 135 124 114 103 98 99
236 237 239 235 244 255 249 250 247 243 242 236 237 241 240 244 250 242 217 208 212 219 257 262 333 9 56 103 228 214 200 184 167 160 166 169 170 170 162 165 159 141 102 105 111 76 77 29 64 93 145 97 108 144 126 161 102 318 41 154 308 358 322 263 200 158 152 166 159 127 342 279 247 225 169 157 160 148 146 153 146 142 141 133 123 109 105 104
244 246 249 241 235 238 246 263 262 255 248 238 236 239 236 231 230 201 167 175 183 188 216 187 174 64 80 247 254 204 193 178 169 169 163 162 158 144 140 146 142 141 123 110 110 88 113 60 63 80 59 93 140 217 34 16 76 285 344 53 359 18 291 300 58 146 154 193 118 110 203 263 268 224 179 176 168 154 158 167 157 154 151 142 133 121 114 105
254 254 260 261 252 242 241 257 263 268 266 253 243 244 230 200 196 162 147 165 164 167 177 186 188 111 59 289 269 188 183 180 181 175 163 162 155 136 134 135 125 118 123 118 122 123 118 71 63 81 358 11 69 64 12 350 1 77 56 325 338 161 266 312 358 152 156 225 96 112 208 271 270 222 197 187 175 163 163 174 167 160 159 151 145 134 127 112
254 255 260 267 269 259 245 258 271 279 278 268 256 233 150 159 156 146 147 154 154 154 129 99 172 131 79 274 231 172 193 202 187 172 165 172 172 148 132 121 106 102 111 112 114 122 94 61 60 108 97 33 73 85 43 9 342 351 121 246 271 185 266 315 306 208 154 137 166 181 217 272 265 215 202 194 186 178 171 182 175 166 167 158 151 143 139 126
247 255 258 259 266 256 243 255 277 290 284 273 254 125 136 140 138 143 137 134 146 149 124 80 118 132 134 214 181 212 202 188 178 174 172 170 169 152 133 119 113 110 102 93 94 88 53 51 76 111 63 59 104 94 59 6 308 320 93 227 253 212 211 243 292 283 140 131 209 231 228 248 263 217 200 202 189 188 190 190 178 166 166 159 153 151 144 134
243 252 256 255 254 248 244 245 260 296 295 231 114 116 118 117 123 130 130 136 128 100 73 342 107 139 263 214 185 202 172 168 170 173 175 159 154 157 141 130 134 113 88 57 37 54 37 24 72 55 16 23 133 106 104 221 209 200 185 210 269 280 223 196 254 258 159 165 217 222 242 251 263 244 214 219 193 198 210 191 175 165 160 160 153 151 146 129
238 244 252 252 244 243 245 235 234 290 114 117 116 113 102 92 96 115 133 141 132 114 189 215 161 147 238 211 165 118 128 151 157 171 180 162 157 168 149 132 129 102 87 53 355 79 98 41 55 82 261 223 193 169 184 205 186 172 172 166 191 249 277 231 234 229 170 180 232 222 233 248 257 243 222 228 205 204 213 177 169 171 159 162 155 147 142 130
237 240 247 246 242 244 234 210 195 181 139 126 117 112 106 95 76 311 206 184 212 214 204 191 189 176 128 156 132 120 123 135 140 180 181 169 162 159 131 107 92 56 95 143 192 253 111 106 152 202 215 207 202 203 205 210 207 193 161 162 192 211 272 270 253 258 156 159 245 234 237 257 262 245 222 219 209 208 210 185 181 182 168 167 159 147 140 138
232 235 239 237 242 235 201 168 167 173 152 138 124 123 151 145 143 202 213 243 252 250 266 226 204 218 165 156 154 143 129 110 50 177 173 170 156 145 150 99 96 36 220 155 146 357 109 152 216 223 217 204 208 215 217 226 232 244 226 213 250 237 253 270 255 258 214 196 262 272 273 271 270 263 239 203 199 213 206 192 189 183 173 169 157 148 143 140
227 232 231 228 227 202 164 141 163 171 162 160 174 228 261 92 117 125 152 249 266 243 245 248 234 257 252 165 169 160 116 94 107 201 179 169 156 161 176 114 130 203 209 116 87 144 173 221 234 231 219 208 237 226 189 208 211 212 206 173 243 267 264 296 322 310 24 181 260 286 281 268 270 268 252 207 200 216 205 189 189 178 168 172 164 152 146 146
225 226 223 220 204 175 152 144 155 165 176 182 199 210 219 57 84 79 128 113 290 238 224 231 232 233 215 176 181 173 143 153 162 225 193 166 163 183 150 138 171 187 154 147 156 170 205 244 234 224 213 208 246 231 144 142 183 173 163 159 228 262 262 290 311 305 276 244 257 285 284 267 267 265 261 239 195 174 136 166 172 170 171 174 168 154 151 155
223 220 218 209 186 165 155 150 155 183 196 203 221 199 145 114 108 62 110 108 283 253 215 206 210 211 198 185 181 177 187 182 159 195 192 170 148 162 155 164 173 166 186 193 184 189 212 228 212 191 201 207 219 219 166 161 252 249 202 186 212 236 219 229 269 326 325 327 316 329 314 283 257 254 262 328 69 150 127 127 124 125 156 151 147 152 157 158
219 217 213 196 178 165 158 156 180 203 195 215 228 199 163 166 202 27 79 13 276 280 256 203 200 206 191 170 170 170 175 230 189 175 182 177 158 144 184 181 160 187 207 196 189 218 231 229 189 152 192 206 204 216 192 175 214 279 239 202 205 215 224 240 302 16 4 325 310 49 330 286 282 263 252 224 165 200 183 158 155 140 134 142 147 158 159 155
214 215 209 190 176 165 159 174 206 200 193 227 222 193 181 191 209 242 116 34 283 261 156 181 182 188 180 160 157 135 47 254 228 157 170 183 182 139 168 189 137 199 199 181 192 237 224 205 199 189 189 191 199 221 212 170 163 254 250 202 198 205 216 234 250 48 290 268 291 84 109 277 284 265 247 192 195 221 220 208 196 176 162 159 158 158 158 155
209 211 206 188 178 174 170 190 196 181 188 239 211 182 190 196 205 243 86 34 285 197 140 194 194 168 168 162 152 128 210 222 93 134 165 183 202 96 150 191 159 193 185 141 228 264 176 172 186 188 182 183 191 216 213 163 143 228 245 155 139 160 181 187 132 132 222 252 318 50 122 277 276 257 250 186 190 233 236 226 219 195 183 174 166 163 157 157
207 208 202 186 183 187 181 155 169 179 197 238 183 176 185 192 200 212 89 75 272 140 130 233 145 137 142 154 153 140 224 170 112 197 208 133 194 47 179 202 176 187 182 148 214 273 155 165 177 172 175 191 195 220 202 155 144 237 224 132 108 123 140 123 109 125 301 350 301 245 134 264 272 265 301 137 192 243 239 224 216 196 187 182 177 171 157 155
206 205 200 186 188 196 195 182 177 191 209 210 171 178 176 175 178 79 79 194 238 110 118 135 132 132 127 144 161 142 51 48 126 224 359 94 122 59 177 207 153 173 206 181 204 259 162 183 181 158 171 196 187 296 215 157 177 205 137 90 67 71 70 66 97 105 26 327 242 205 162 225 268 251 131 121 226 244 242 224 205 191 189 184 176 172 163 154
207 205 198 185 191 201 204 221 216 195 198 202 174 169 163 154 135 88 150 218 223 183 106 127 155 162 149 146 168 153 92 41 87 108 55 91 29 28 147 182 82 131 258 335 244 255 315 251 178 137 166 174 139 76 19 137 164 134 87 61 44 28 31 39 58 85 57 277 225 192 187 193 264 270 187 193 225 222 219 202 188 185 185 183 173 168 166 157
208 203 197 188 193 195 194 223 213 180 175 190 160 151 153 106 78 152 200 232 327 187 127 139 175 152 158 157 163 173 126 80 163 142 141 153 61 42 75 72 66 83 332 334 325 312 343 349 221 169 147 122 100 73 10 11 94 101 86 83 62 354 11 21 3 57 135 257 230 201 192 185 228 261 227 236 255 228 199 186 186 184 181 179 171 165 164 159
210 202 196 192 192 192 192 204 192 170 171 183 159 148 152 94 177 217 211 107 321 202 154 165 189 164 168 168 169 168 143 142 182 163 160 158 172 182 182 188 169 138 254 233 250 307 292 231 196 95 212 138 116 95 9 355 31 88 103 106 105 309 358 1 316 155 223 252 249 204 179 195 236 252 257 259 261 256 237 200 180 178 178 173 166 163 160 156
213 202 197 195 193 195 198 197 184 169 172 176 162 143 140 161 203 216 209 190 200 196 142 145 169 164 166 169 175 163 126 149 178 169 166 144 172 210 233 227 189 172 201 191 191 204 274 295 187 150 288 188 154 156 181 253 168 142 137 133 149 166 183 260 249 248 256 263 280 196 158 224 270 267 259 259 254 268 270 217 177 172 171 167 163 159 154 156
216 202 197 197 198 199 197 194 189 177 171 168 159 147 168 197 214 206 208 211 176 95 107 134 138 147 167 178 179 164 143 195 175 155 154 144 168 215 236 241 219 191 98 142 183 181 208 287 203 176 222 189 181 186 162 142 156 175 154 136 153 160 170 215 212 213 250 274 294 276 163 196 221 246 261 270 287 305 303 165 147 147 153 152 151 154 156 161
215 202 197 198 202 205 198 193 196 186 175 164 160 173 182 203 222 214 209 193 145 99 78 118 124 137 189 227 202 178 158 186 174 145 163 173 182 200 198 213 207 180 130 166 209 163 196 262 235 183 201 171 184 198 120 112 138 222 129 115 173 185 173 208 212 183 188 286 278 220 216 217 205 250 285 317 343 358 32 103 121 127 139 142 151 163 165 164
210 199 197 198 202 205 198 193 192 188 183 169 176 187 196 206 209 204 200 164 156 144 111 115 117 145 193 212 217 206 156 106 160 160 196 200 207 204 196 204 194 187 181 174 181 157 176 273 299 22 18 170 185 200 129 141 182 177 135 175 207 180 153 185 278 355 104 264 259 196 239 291 292 279 322 34 30 24 53 115 135 142 148 152 164 170 170 170
203 198 198 201 203 201 197 195 189 185 184 189 200 201 208 217 201 150 184 168 146 135 131 166 182 162 183 189 200 203 175 100 164 173 187 195 232 209 196 209 188 194 201 177 176 189 156 249 297 64 171 253 243 111 69 33 136 132 177 208 179 59 93 129 260 342 48 252 268 197 219 260 237 252 334 57 168 221 200 164 148 152 162 168 174 172 171 169
200 198 204 209 206 198 196 194 186 180 180 200 218 224 225 220 208 159 189 158 136 145 162 204 195 163 176 185 193 189 180 173 175 181 183 192 244 205 181 195 191 195 203 187 207 236 145 183 286 108 188 276 349 109 81 351 86 131 189 196 120 113 213 132 173 226 199 244 280 251 223 223 203 214 218 188 209 211 198 183 174 176 178 179 176 172 171 165
198 197 229 214 205 197 194 191 182 176 186 196 214 229 224 220 224 221 217 174 156 166 187 210 196 175 184 176 169 179 189 185 168 175 188 187 236 210 173 180 196 195 195 184 195 224 143 194 249 303 215 268 19 114 171 217 60 68 67 174 105 156 175 165 180 174 167 223 269 288 257 235 226 203 181 199 209 194 182 188 193 190 185 182 177 174 174 170
194 203 256 201 199 196 190 187 183 182 191 194 209 216 205 212 223 236 255 253 194 184 199 206 189 185 193 173 164 173 188 189 170 181 206 187 211 237 186 177 180 188 189 188 194 179 113 213 221 313 331 171 177 201 189 187 185 160 150 179 199 164 130 178 225 156 144 191 234 278 280 260 246 198 186 209 213 190 185 191 194 191 183 182 182 178 176 171
184 236 225 176 189 188 180 181 193 193 192 198 213 217 209 196 198 217 234 229 221 235 191 189 192 191 181 168 176 175 172 183 181 188 216 201 201 233 205 185 173 168 171 185 203 198 176 196 171 159 244 202 221 247 214 191 182 174 184 189 186 175 151 196 250 208 161 198 188 208 270 265 235 191 207 229 226 198 194 192 186 184 183 183 183 179 177 172
167 245 178 166 179 175 168 186 195 181 204 206 208 215 206 194 175 194 207 208 239 252 188 188 209 197 182 174 182 175 167 182 193 192 207 211 205 209 229 207 169 159 153 175 204 197 146 127 137 169 210 210 240 295 341 130 101 99 192 189 181 187 172 185 229 220 191 234 164 137 274 273 243 213 231 256 251 211 194 187 180 182 183 180 178 175 173 170
232 250 157 166 173 167 165 210 183 184 216 195 197 237 194 198 198 179 195 204 208 201 201 245 229 203 207 182 174 178 176 183 196 196 202 212 208 213 292 300 167 162 157 169 195 164 94 119 156 212 312 344 331 340 4 35 65 78 234 185 182 205 195 194 210 177 189 223 146 145 261 263 291 290 280 294 278 198 179 181 176 176 176 173 173 171 168 166
230 261 80 175 175 169 174 211 180 196 207 174 191 217 206 227 214 196 197 200 196 185 202 226 225 207 206 145 146 181 184 192 205 200 192 198 207 338 347 314 196 173 171 174 175 170 170 162 147 156 268 318 334 348 347 344 198 213 229 185 199 209 201 212 157 135 242 205 151 189 247 236 288 314 331 337 327 164 175 184 170 165 171 172 171 168 165 163
202 217 336 195 182 176 189 203 181 194 199 181 197 206 202 219 216 205 200 195 197 194 191 222 239 172 158 127 75 176 187 186 194 190 164 172 220 351 360 337 310 178 187 319 170 171 174 166 160 180 216 233 231 203 202 207 194 213 197 186 208 207 197 204 204 214 236 172 153 208 245 248 306 324 310 308 294 168 176 182 175 172 172 169 165 165 165 165
174 211 208 218 207 204 227 201 178 188 188 183 198 205 203 211 214 200 199 204 209 198 184 203 213 174 186 178 160 185 198 75 75 160 174 166 207 302 336 10 22 120 149 15 100 138 129 183 198 200 217 227 223 202 174 143 150 196 202 197 207 209 200 197 216 224 210 138 197 222 234 257 273 256 239 240 212 198 188 176 181 179 168 166 165 167 168 169
198 217 186 174 215 225 244 257 186 194 187 180 183 189 198 207 207 167 201 213 203 192 193 154 178 202 206 192 191 199 183 118 95 172 176 158 171 293 326 63 51 16 1 42 67 98 116 210 215 205 225 237 228 181 168 159 178 197 201 203 206 205 198 197 220 221 150 145 244 227 197 242 247 216 220 219 199 215 211 188 183 173 165 162 156 159 163 164
204 204 192 191 192 207 223 220 196 200 190 180 183 183 189 201 200 185 201 204 178 178 189 216 220 219 215 200 194 202 171 159 198 191 163 146 153 146 15 43 45 354 14 41 16 86 141 212 209 192 232 248 224 134 162 168 191 200 201 209 205 199 198 200 218 219 160 195 246 231 189 229 239 217 213 204 195 204 196 179 169 156 156 152 147 157 166 167
196 210 229 222 209 202 216 207 183 198 194 182 190 194 187 198 204 200 188 164 184 198 193 211 225 221 220 210 193 201 192 188 215 210 171 152 159 144 120 113 79 4 42 77 16 79 153 212 174 172 235 248 207 144 144 157 198 230 216 217 210 205 204 205 218 220 201 220 239 228 207 232 237 224 214 198 192 185 152 140 147 152 158 156 158 167 173 175
194 213 206 189 258 224 212 181 150 189 205 189 197 201 191 200 205 204 184 166 191 200 190 214 226 216 212 210 199 213 212 204 219 217 163 154 180 175 181 182 146 66 62 115 42 5 183 203 120 138 234 250 205 153 140 160 194 237 238 228 210 198 205 217 228 223 215 232 238 233 248 253 257 251 198 154 143 132 137 163 168 166 167 163 167 172 173 182
262 287 150 144 210 212 198 169 159 195 215 197 204 203 199 208 205 201 200 193 199 195 186 210 222 212 200 205 205 221 222 215 222 209 161 174 192 182 191 176 136 132 142 156 148 144 178 203 76 120 216 245 202 162 167 150 153 261 255 236 194 163 195 215 223 215 210 225 231 231 244 245 226 139 103 121 142 149 165 179 172 177 177 166 171 178 181 190
224 328 46 166 206 201 191 180 179 200 205 192 209 212 209 218 209 194 200 216 217 211 200 211 216 186 171 205 214 224 223 206 198 169 156 171 161 151 174 164 150 154 160 167 166 153 165 177 157 161 208 247 193 150 156 123 122 264 258 227 186 192 213 217 221 219 213 214 218 225 233 217 170 149 130 139 162 164 171 178 172 181 187 181 184 186 187 191